Mount Carmel, IL

1:48 PM CST on November 20, 2017 (GMT -0600)
Mount Carmel Municipal

Weather History for KAJG - September, 2014

Change the Weather History Date:

Wednesday, September 3, 2014

  Actual Average (KLWV) Record (KLWV)
Temperature  
Mean Temperature 74 °F -  
Max Temperature 87 °F 84 °F 101 °F (2011)
Min Temperature 62 °F 59 °F 53 °F (1997)
Cooling Degree Days 10    
Growing Degree Days 24 (Base 50)    
Moisture  
Dew Point 65 °F    
Average Humidity 77    
Maximum Humidity 100    
Minimum Humidity 40    
Precipitation  
Precipitation 0.00 in - - ()
Sea Level Pressure  
Sea Level Pressure 30.03 in    
Wind  
Wind Speed 1 mph (SE)    
Max Wind Speed 8 mph    
Max Gust Speed -    
Visibility 7 miles    
Events Fog    
Averages and records for this station are not official NWS values.
T = Trace of Precipitation, MM = Missing Value Source: NWS Daily Summary

Daily Weather History Graph

Daily Weather History Graph

Search for Another Location

Airport or City:

Trip Planner

Search our weather history database for the weather conditions in past years. The results will help you decide how hot, cold, wet, or windy it might be!

Date:

Astronomy

Sep. 03, 2014 Rise Set
Actual Time 6:21 AM CDT 7:17 PM CDT
Civil Twilight 5:54 AM CDT 7:44 PM CDT
Nautical Twilight 5:22 AM CDT 8:17 PM CDT
Astronomical Twilight 4:49 AM CDT 8:50 PM CDT
Moon 2:57 PM CDT (9/3) 12:17 AM CDT (9/3)
Length of Visible Light 13h 50m
Length of Day
12h 55m
Waxing Gibbous, 64% of the Moon is Illuminated
Sep 3
Waxing Gibbous
Sep 8
Full
Sep 15
Last Quarter
Sep 24
New
Oct 1
First Quarter

Hourly Weather History & Observations

Time (CDT) Temp. Heat Index Dew Point Humidity Pressure Visibility Wind Dir Wind Speed Gust Speed Precip Events Conditions
12:15 AM 66.2 °F - 64.4 °F 94% 30.01 in 0.2 mi Calm Calm - N/A Fog Fog
12:35 AM 66.2 °F - 64.4 °F 94% 30.01 in 0.2 mi Calm Calm - N/A Fog Fog
12:55 AM 66.2 °F - 64.4 °F 94% 30.01 in 0.5 mi Calm Calm - N/A Fog Fog
1:15 AM 66.2 °F - 64.4 °F 94% 30.01 in 1.2 mi Calm Calm - N/A   Scattered Clouds
1:35 AM 66.2 °F - 64.4 °F 94% 30.01 in 3.0 mi Calm Calm - N/A   Clear
1:55 AM 64.4 °F - 64.4 °F 100% 30.00 in 2.5 mi Calm Calm - N/A   Clear
2:15 AM 64.4 °F - 64.4 °F 100% 30.01 in 0.2 mi Calm Calm - N/A Fog Fog
2:35 AM 64.4 °F - 64.4 °F 100% 30.01 in 0.2 mi Calm Calm - N/A Fog Fog
2:55 AM 64.4 °F - 62.6 °F 94% 30.01 in 0.5 mi Calm Calm - N/A Fog Fog
3:15 AM 64.4 °F - 62.6 °F 94% 30.01 in 0.2 mi Calm Calm - N/A Fog Fog
3:35 AM 64.4 °F - 62.6 °F 94% 30.01 in 0.2 mi Calm Calm - N/A Fog Fog
3:55 AM 64.4 °F - 62.6 °F 94% 30.00 in 0.2 mi Calm Calm - N/A Fog Fog
4:15 AM 62.6 °F - 62.6 °F 100% 30.01 in 0.2 mi Calm Calm - N/A Fog Fog
4:35 AM 64.4 °F - 62.6 °F 94% 30.01 in 0.2 mi Calm Calm - N/A Fog Fog
4:55 AM 62.6 °F - 62.6 °F 100% 30.02 in 0.2 mi Calm Calm - N/A Fog Fog
5:15 AM 62.6 °F - 62.6 °F 100% 30.03 in 0.5 mi Calm Calm - N/A Fog Fog
5:35 AM 62.6 °F - 62.6 °F 100% 30.03 in 0.2 mi Calm Calm - N/A Fog Fog
5:55 AM 62.6 °F - 62.6 °F 100% 30.04 in 0.2 mi Calm Calm - N/A Fog Fog
6:15 AM 62.6 °F - 62.6 °F 100% 30.04 in 0.8 mi Calm Calm - N/A   Overcast
6:35 AM 62.6 °F - 62.6 °F 100% 30.05 in 0.2 mi Calm Calm - N/A Fog Fog
6:55 AM 62.6 °F - 62.6 °F 100% 30.06 in 0.5 mi Calm Calm - N/A Fog Fog
7:15 AM 64.4 °F - 62.6 °F 94% 30.06 in 0.2 mi Calm Calm - N/A Fog Fog
7:35 AM 64.4 °F - 64.4 °F 100% 30.06 in 0.5 mi Calm Calm - N/A Fog Fog
7:55 AM 68.0 °F - 66.2 °F 94% 30.06 in 0.5 mi Calm Calm - N/A Fog Fog
8:10 AM 68.0 °F - 68.0 °F 100% 30.06 in 3.0 mi Calm Calm - N/A   Mostly Cloudy
8:35 AM 71.6 °F - 69.8 °F 94% 30.06 in 10.0 mi Calm Calm - N/A   Clear
8:55 AM 71.6 °F - 71.6 °F 100% 30.06 in 10.0 mi Calm Calm - N/A   Clear
9:15 AM 73.4 °F - 71.6 °F 94% 30.07 in 10.0 mi Calm Calm - N/A   Clear
9:35 AM 77.0 °F - 75.2 °F 94% 30.06 in 10.0 mi Calm Calm - N/A   Clear
9:55 AM 80.6 °F 84.6 °F 71.6 °F 74% 30.06 in 10.0 mi East 3.5 mph - N/A   Clear
10:15 AM 80.6 °F 83.9 °F 69.8 °F 70% 30.07 in 10.0 mi East 5.8 mph - N/A   Clear
10:35 AM 82.4 °F 86.3 °F 69.8 °F 66% 30.08 in 10.0 mi SE 5.8 mph - N/A   Scattered Clouds
10:55 AM 80.6 °F 83.9 °F 69.8 °F 70% 30.07 in 10.0 mi Calm Calm - N/A   Scattered Clouds
11:15 AM 80.6 °F 83.2 °F 68.0 °F 65% 30.07 in 10.0 mi Calm Calm - N/A   Mostly Cloudy
11:35 AM 82.4 °F 85.4 °F 68.0 °F 62% 30.07 in 10.0 mi Calm Calm - N/A   Mostly Cloudy
11:55 AM 86.0 °F 88.2 °F 66.2 °F 51% 30.06 in 10.0 mi East 3.5 mph - N/A   Mostly Cloudy
12:15 PM 84.2 °F 85.6 °F 64.4 °F 51% 30.05 in 10.0 mi Calm Calm - N/A   Scattered Clouds
12:35 PM 86.0 °F 87.3 °F 64.4 °F 48% 30.05 in 10.0 mi East 3.5 mph - N/A   Clear
12:55 PM 86.0 °F 87.3 °F 64.4 °F 48% 30.04 in 10.0 mi East 3.5 mph - N/A   Clear
1:15 PM 87.8 °F 88.5 °F 62.6 °F 43% 30.04 in 10.0 mi Calm Calm - N/A   Clear
1:35 PM 87.8 °F 87.6 °F 60.8 °F 40% 30.05 in 10.0 mi Calm Calm - N/A   Scattered Clouds
1:55 PM 87.8 °F 87.6 °F 60.8 °F 40% 30.05 in 10.0 mi Calm Calm - N/A   Clear
2:15 PM 86.0 °F 86.6 °F 62.6 °F 45% 30.05 in 10.0 mi SW 4.6 mph - N/A   Scattered Clouds
2:35 PM 87.8 °F 88.5 °F 62.6 °F 43% 30.04 in 10.0 mi SSW 4.6 mph - N/A   Scattered Clouds
2:55 PM 87.8 °F 88.5 °F 62.6 °F 43% 30.04 in 10.0 mi SSE 3.5 mph - N/A   Clear
3:15 PM 87.8 °F 88.5 °F 62.6 °F 43% 30.02 in 10.0 mi South 8.1 mph - N/A   Clear
3:35 PM 87.8 °F 88.5 °F 62.6 °F 43% 30.02 in 10.0 mi Calm Calm - N/A   Clear
3:55 PM 87.8 °F 88.5 °F 62.6 °F 43% 30.01 in 10.0 mi South 4.6 mph - N/A   Scattered Clouds
4:15 PM 87.8 °F 88.5 °F 62.6 °F 43% 30.01 in 10.0 mi SSW 3.5 mph - N/A   Scattered Clouds
4:35 PM 87.8 °F 88.5 °F 62.6 °F 43% 30.01 in 10.0 mi SSW 6.9 mph - N/A   Clear
4:55 PM 86.0 °F 86.6 °F 62.6 °F 45% 30.01 in 10.0 mi Calm Calm - N/A   Clear
5:15 PM 87.8 °F 88.5 °F 62.6 °F 43% 30.01 in 10.0 mi South 4.6 mph - N/A   Clear
5:35 PM 86.0 °F 86.6 °F 62.6 °F 45% 30.00 in 10.0 mi SE 4.6 mph - N/A   Clear
5:55 PM 86.0 °F 86.6 °F 62.6 °F 45% 29.99 in 10.0 mi SSE 3.5 mph - N/A   Clear
6:15 PM 86.0 °F 87.3 °F 64.4 °F 48% 30.00 in 10.0 mi SSE 3.5 mph - N/A   Clear
6:55 PM 82.4 °F 85.4 °F 68.0 °F 62% 30.00 in 10.0 mi SE 3.5 mph - N/A   Clear
7:15 PM 80.6 °F 83.2 °F 68.0 °F 65% 30.01 in 10.0 mi Calm Calm - N/A   Clear
7:35 PM 77.0 °F - 69.8 °F 78% 30.01 in 10.0 mi Calm Calm - N/A   Clear
7:55 PM 77.0 °F - 69.8 °F 78% 30.01 in 10.0 mi ESE 3.5 mph - N/A   Clear
8:15 PM 73.4 °F - 69.8 °F 88% 30.02 in 10.0 mi Calm Calm - N/A   Clear
8:35 PM 73.4 °F - 69.8 °F 88% 30.03 in 10.0 mi Calm Calm - N/A   Clear
8:55 PM 73.4 °F - 69.8 °F 88% 30.04 in 10.0 mi Calm Calm - N/A   Clear
9:15 PM 73.4 °F - 69.8 °F 88% 30.04 in 10.0 mi Calm Calm - N/A   Clear
9:35 PM 71.6 °F - 68.0 °F 88% 30.04 in 10.0 mi East 3.5 mph - N/A   Clear
9:55 PM 69.8 °F - 68.0 °F 94% 30.04 in 10.0 mi Calm Calm - N/A   Clear
10:15 PM 71.6 °F - 68.0 °F 88% 30.05 in 10.0 mi Calm Calm - N/A   Clear
10:55 PM 71.6 °F - 68.0 °F 88% 30.05 in 10.0 mi Calm Calm - N/A   Clear
11:15 PM 69.8 °F - 66.2 °F 88% 30.06 in 10.0 mi Calm Calm - N/A   Clear
11:35 PM 68.0 °F - 66.2 °F 94% 30.05 in 10.0 mi Calm Calm - N/A   Clear
11:55 PM 69.8 °F - 68.0 °F 94% 30.05 in 10.0 mi Calm Calm - N/A   Clear